GW6390 Weather Reports


time (UTC)temp
C
wind
direction
speed
KPH
gust
KPH
rain 1hr
cm
rain 24hr
cm
rain mn
cm
humidity
%
barometer
mb
20260503014017 17 65 3.2 9.7 0.00 0.00 0.00 35 1015.9
20260503013517 17 65 4.8 9.7 0.00 0.00 0.00 34 1016.1
20260503013056 17 72 4.8 12.9 0.00 0.00 0.00 33 1016.0
20260503012515 17 89 8.0 14.5 0.00 0.00 0.00 33 1016.0
20260503012015 18 65 9.7 14.5 0.00 0.00 0.00 33 1016.1
20260503011603 18 66 6.4 9.7 0.00 0.00 0.00 32 1016.2
20260503011018 18 14 3.2 8.0 0.00 0.00 0.00 31 1016.4
20260503010518 18 5 4.8 12.9 0.00 0.00 0.00 31 1016.3
20260503010119 18 34 6.4 12.9 0.00 0.00 0.00 31 1016.3
20260503005519 18 24 6.4 9.7 0.00 0.00 0.00 31 1016.3
20260503005021 18 16 4.8 9.7 0.00 0.00 0.00 30 1016.4
20260503004557 18 350 4.8 12.9 0.00 0.00 0.00 30 1016.3
20260503004018 18 344 8.0 12.9 0.00 0.00 0.00 30 1016.3
20260503003518 19 54 6.4 9.7 0.00 0.00 0.00 30 1016.5
20260503003051 19 33 4.8 12.9 0.00 0.00 0.00 30 1016.5
20260503002522 19 45 4.8 14.5 0.00 0.00 0.00 30 1016.7
20260503002019 19 11 9.7 12.9 0.00 0.00 0.00 29 1016.7
20260503001605 20 146 1.6 14.5 0.00 0.00 0.00 29 1016.6
20260503001018 20 17 6.4 14.5 0.00 0.00 0.00 29 1016.6
20260503000518 19 284 0.0 14.5 0.00 0.00 0.00 30 1016.7
20260503000107 19 360 4.8 19.3 0.00 0.00 0.00 30 1016.6
20260502235517 19 296 8.0 16.1 0.00 0.00 0.00 29 1016.6
20260502235022 19 272 3.2 20.9 0.00 0.00 0.00 30 1016.8
20260502234820 19 42 12.9 20.9 0.00 0.00 0.00 30 1016.7
20260502234017 19 36 12.9 20.9 0.00 0.00 0.00 29 1016.8
20260502233517 19 35 12.9 20.9 0.00 0.00 0.00 29 1016.7
20260502233052 20 27 4.8 16.1 0.00 0.00 0.00 29 1016.8
20260502232519 20 63 8.0 14.5 0.00 0.00 0.00 29 1017.0
20260502232019 20 355 6.4 20.9 0.00 0.00 0.00 29 1017.2
20260502231527 20 13 11.3 20.9 0.00 0.00 0.00 30 1017.2
20260502231019 19 5 6.4 16.1 0.00 0.00 0.00 30 1017.0
20260502230514 19 40 6.4 16.1 0.00 0.00 0.00 30 1017.2
20260502230044 19 32 8.0 19.3 0.00 0.00 0.00 30 1017.2
20260502225513 19 55 11.3 19.3 0.00 0.00 0.00 30 1017.3
20260502225016 19 112 3.2 8.0 0.00 0.00 0.00 30 1017.4
20260502224547 19 52 3.2 12.9 0.00 0.00 0.00 30 1017.5
20260502224015 18 329 3.2 14.5 0.00 0.00 0.00 30 1017.5
20260502223514 18 352 8.0 14.5 0.00 0.00 0.00 30 1017.7
20260502223047 19 352 6.4 14.5 0.00 0.00 0.00 29 1017.6
20260502222516 19 342 3.2 20.9 0.00 0.00 0.00 29 1017.9
20260502222015 20 5 12.9 20.9 0.00 0.00 0.00 28 1018.1
20260502221550 20 325 11.3 25.7 0.00 0.00 0.00 29 1018.1
20260502221020 20 5 16.1 25.7 0.00 0.00 0.00 29 1018.1
20260502220514 19 5 6.4 22.5 0.00 0.00 0.00 30 1018.0
20260502220047 19 320 11.3 25.7 0.00 0.00 0.00 30 1018.3
20260502215514 19 341 14.5 25.7 0.00 0.00 0.00 30 1018.2
20260502215014 19 311 1.6 22.5 0.00 0.00 0.00 32 1018.5
20260502214600 19 325 4.8 22.5 0.00 0.00 0.00 31 1018.4
20260502214011 18 337 9.7 22.5 0.00 0.00 0.00 31 1018.3
20260502213516 18 338 14.5 20.9 0.00 0.00 0.00 31 1018.3
20260502213316 18 352 12.9 19.3 0.00 0.00 0.00 32 1018.5
20260502212518 18 346 6.4 17.7 0.00 0.00 0.00 31 1018.7
20260502212018 18 12 11.3 17.7 0.00 0.00 0.00 30 1018.5
20260502211610 19 333 8.0 17.7 0.00 0.00 0.00 30 1018.7
20260502211016 20 350 6.4 22.5 0.00 0.00 0.00 30 1018.8
20260502210518 19 22 11.3 22.5 0.00 0.00 0.00 31 1019.1
20260502210101 18 339 4.8 24.1 0.00 0.00 0.00 31 1018.6
20260502205515 18 63 14.5 24.1 0.00 0.00 0.00 31 1018.7
20260502205027 18 282 6.4 20.9 0.00 0.00 0.00 31 1018.8
20260502204547 18 352 11.3 16.1 0.00 0.00 0.00 31 1019.1
20260502204018 18 71 8.0 29.0 0.00 0.00 0.00 30 1019.2
20260502203526 19 9 14.5 29.0 0.00 0.00 0.00 29 1019.1
20260502203101 19 28 16.1 22.5 0.00 0.00 0.00 30 1019.0
20260502202516 19 302 4.8 22.5 0.00 0.00 0.00 30 1019.2
20260502202014 19 336 14.5 27.4 0.00 0.00 0.00 30 1019.3
20260502201926 18 9 16.1 22.5 0.00 0.00 0.00 31 1019.4
20260502201019 18 92 16.1 22.5 0.00 0.00 0.00 31 1019.5
20260502200511 18 9 17.7 29.0 0.00 0.00 0.00 30 1019.5
20260502200105 18 25 19.3 29.0 0.00 0.00 0.00 31 1019.5
20260502195521 18 21 8.0 22.5 0.00 0.00 0.00 31 1019.6
20260502195019 19 309 12.9 30.6 0.00 0.00 0.00 30 1019.5
20260502194558 19 46 19.3 30.6 0.00 0.00 0.00 30 1019.6
20260502194021 18 20 9.7 30.6 0.00 0.00 0.00 31 1019.7
20260502193516 18 45 14.5 33.8 0.00 0.00 0.00 31 1019.8
20260502193120 18 28 24.1 33.8 0.00 0.00 0.00 31 1019.6
20260502192521 18 346 19.3 27.4 0.00 0.00 0.00 32 1019.6
20260502192020 18 360 16.1 30.6 0.00 0.00 0.00 31 1019.8
20260502191601 18 43 20.9 30.6 0.00 0.00 0.00 30 1019.7
20260502191019 18 306 14.5 29.0 0.00 0.00 0.00 30 1019.6
20260502190522 18 28 14.5 25.7 0.00 0.00 0.00 30 1019.6
20260502185518 18 11 19.3 27.4 0.00 0.00 0.00 31 1019.8
20260502185014 18 38 19.3 25.7 0.00 0.00 0.00 30 1019.7
20260502184602 18 5 17.7 22.5 0.00 0.00 0.00 33 1019.6
20260502184021 18 25 14.5 22.5 0.00 0.00 0.00 33 1019.8
20260502183518 18 347 12.9 25.7 0.00 0.00 0.00 32 1019.9
20260502183100 18 5 17.7 29.0 0.00 0.00 0.00 31 1019.9
20260502182520 18 41 9.7 22.5 0.00 0.00 0.00 34 1019.8
20260502182018 18 54 12.9 25.7 0.00 0.00 0.00 33 1019.9
20260502181559 18 18 14.5 25.7 0.00 0.00 0.00 32 1019.9
20260502181016 18 339 11.3 27.4 0.00 0.00 0.00 33 1020.1
20260502180517 18 342 12.9 27.4 0.00 0.00 0.00 32 1020.0
20260502170514 18 331 16.1 22.5 0.00 0.00 0.00 34 1020.1
20260502164018 16 355 6.4 17.7 0.00 0.00 0.00 36 1020.3
20260502163517 17 67 8.0 19.3 0.00 0.00 0.00 36 1020.3
20260502163045 16 16 9.7 19.3 0.00 0.00 0.00 37 1020.4
20260502162516 16 22 11.3 17.7 0.00 0.00 0.00 37 1020.4
20260502162018 16 51 8.0 17.7 0.00 0.00 0.00 38 1020.4
20260502161547 16 94 8.0 19.3 0.00 0.00 0.00 38 1020.5
20260502161016 16 66 9.7 19.3 0.00 0.00 0.00 38 1020.4
20260502160513 16 67 12.9 17.7 0.00 0.00 0.00 37 1020.3
20260502160105 16 42 3.2 17.7 0.00 0.00 0.00 38 1020.3
20260502152019 14 55 4.8 12.9 0.00 0.00 0.00 42 1019.9
20260502151607 14 352 4.8 14.5 0.00 0.00 0.00 43 1020.0
20260502151016 13 40 4.8 14.5 0.00 0.00 0.00 43 1020.0
20260502150517 13 15 6.4 14.5 0.00 0.00 0.00 43 1020.0
20260502130519 7 360 6.4 9.7 0.00 0.00 0.00 60 1019.4
20260502130109 7 355 6.4 12.9 0.00 0.00 0.00 60 1019.3
20260502123520 6 13 6.4 9.7 0.00 0.00 0.00 62 1019.2
20260502123107 5 17 6.4 9.7 0.00 0.00 0.00 62 1018.9
20260502122521 5 13 6.4 9.7 0.00 0.00 0.00 62 1018.8
20260502122021 5 9 6.4 12.9 0.00 0.00 0.00 61 1019.1
20260502121556 5 352 8.0 12.9 0.00 0.00 0.00 61 1019.1
20260502121010 6 355 6.4 12.9 0.00 0.00 0.00 61 1019.0
20260502120521 5 14 8.0 12.9 0.00 0.00 0.00 61 1018.8
20260502120109 6 352 6.4 9.7 0.00 0.00 0.00 59 1018.6
20260502115520 6 32 6.4 12.9 0.00 0.00 0.00 59 1018.6
20260502115018 6 25 6.4 12.9 0.00 0.00 0.00 59 1018.5
20260502114834 6 30 6.4 9.7 0.00 0.00 0.00 59 1018.5
20260502114018 6 53 4.8 12.9 0.00 0.00 0.00 60 1018.3
20260502113518 6 360 6.4 9.7 0.00 0.00 0.00 60 1018.3
20260502113105 6 42 3.2 12.9 0.00 0.00 0.00 61 1018.1
20260502112516 5 22 3.2 17.7 0.00 0.00 0.00 60 1018.1
20260502112018 5 333 6.4 12.9 0.00 0.00 0.00 59 1018.4
20260502111543 6 39 3.2 6.4 0.00 0.00 0.00 59 1018.1
20260502111017 6 39 3.2 8.0 0.00 0.00 0.00 59 1018.0
20260502110518 6 39 6.4 8.0 0.00 0.00 0.00 57 1017.8
20260502110110 6 39 3.2 8.0 0.00 0.00 0.00 57 1017.8
20260502105516 6 44 4.8 8.0 0.00 0.00 0.00 57 1017.9
20260502105055 6 39 4.8 8.0 0.00 0.00 0.00 56 1017.5
20260502104554 6 51 4.8 8.0 0.00 0.00 0.00 55 1017.3
20260502104017 6 71 4.8 8.0 0.00 0.00 0.00 54 1017.6
20260502103521 7 74 3.2 9.7 0.00 0.00 0.00 53 1017.5
20260502103057 7 45 6.4 11.3 0.00 0.00 0.00 53 1017.5
20260502102529 7 38 6.4 11.3 0.00 0.00 0.00 53 1017.2
20260502102017 7 30 6.4 14.5 0.00 0.00 0.00 52 1017.3
20260502101613 7 19 9.7 14.5 0.00 0.00 0.00 51 1017.2
20260502101017 7 16 8.0 16.1 0.00 0.00 0.00 51 1017.1
20260502100516 7 17 9.7 16.1 0.00 0.00 0.00 52 1017.0
20260502100443 7 13 9.7 14.5 0.00 0.00 0.00 52 1017.1
20260502091014 6 331 14.5 19.3 0.00 0.00 0.00 53 1016.2
20260502090621 6 352 14.5 19.3 0.00 0.00 0.00 53 1016.2
20260502090559 6 343 12.9 19.3 0.00 0.00 0.00 54 1015.9
20260502071017 8 286 6.4 9.7 0.00 0.00 0.00 44 1015.3
20260502070516 8 286 8.0 11.3 0.00 0.00 0.00 44 1015.3
20260502070109 8 288 8.0 11.3 0.00 0.00 0.00 43 1015.3
20260502065515 8 307 4.8 8.0 0.00 0.00 0.00 43 1015.4
20260502065014 8 307 6.4 8.0 0.00 0.00 0.00 42 1015.4
20260502064612 8 290 4.8 8.0 0.00 0.00 0.00 43 1015.4
20260502064014 7 287 4.8 8.0 0.00 0.00 0.00 43 1015.5
20260502063516 8 287 4.8 8.0 0.00 0.00 0.00 42 1015.4
20260502063053 9 288 6.4 16.1 0.00 0.00 0.00 39 1015.5
20260502062521 10 299 11.3 16.1 0.00 0.00 0.00 37 1015.4
20260502062016 11 305 9.7 12.9 0.00 0.00 0.00 35 1015.6
20260502061554 12 315 6.4 9.7 0.00 0.00 0.00 32 1015.3
20260502061017 12 295 4.8 8.0 0.00 0.00 0.00 33 1015.3
20260502060517 12 295 4.8 8.0 0.00 0.00 0.00 34 1015.2
20260502060056 12 295 4.8 6.4 0.00 0.00 0.00 34 1015.1
20260502055517 11 295 3.2 6.4 0.00 0.00 0.00 35 1015.3
20260502055020 10 295 4.8 11.3 0.00 0.00 0.00 36 1015.3
20260502054553 10 295 6.4 11.3 0.00 0.00 0.00 35 1015.3
20260502054016 12 329 4.8 6.4 0.00 0.00 0.00 30 1015.3
20260502053516 14 309 1.6 4.8 0.00 0.00 0.00 29 1015.2
20260502053100 14 309 1.6 4.8 0.00 0.00 0.00 28 1015.1
20260502052518 13 309 0.0 6.4 0.00 0.00 0.00 29 1015.1
20260502052019 13 309 1.6 6.4 0.00 0.00 0.00 29 1015.2
20260502051550 13 309 4.8 6.4 0.00 0.00 0.00 29 1015.1
20260502051011 13 309 3.2 4.8 0.00 0.00 0.00 29 1015.3
20260502050517 13 309 0.0 3.2 0.00 0.00 0.00 29 1015.1
20260502050054 13 309 0.0 4.8 0.00 0.00 0.00 29 1015.1
20260502045521 14 309 1.6 8.0 0.00 0.00 0.00 28 1015.2
20260502045015 15 309 1.6 8.0 0.00 0.00 0.00 28 1015.0
20260502044557 15 309 0.0 4.8 0.00 0.00 0.00 28 1015.1
20260502044018 13 309 0.0 6.4 0.00 0.00 0.00 29 1015.0
20260502043520 13 309 0.0 9.7 0.00 0.00 0.00 30 1015.0
20260502043122 13 309 6.4 9.7 0.00 0.00 0.00 31 1015.2
20260502042517 13 348 0.0 9.7 0.00 0.00 0.00 30 1015.2
20260502042029 12 340 6.4 12.9 0.00 0.00 0.00 32 1015.2
20260502041604 13 303 6.4 9.7 0.00 0.00 0.00 30 1015.0
20260502041014 15 190 6.4 8.0 0.00 0.00 0.00 28 1014.9
20260502040533 14 300 1.6 8.0 0.00 0.00 0.00 29 1015.1
20260502040046 13 300 3.2 9.7 0.00 0.00 0.00 29 1015.1
20260502035516 15 306 4.8 9.7 0.00 0.00 0.00 27 1015.1
20260502035018 15 277 3.2 11.3 0.00 0.00 0.00 28 1015.0
20260502034544 14 277 6.4 11.3 0.00 0.00 0.00 29 1014.9
20260502034016 15 217 4.8 8.0 0.00 0.00 0.00 27 1015.0
20260502033520 15 217 6.4 8.0 0.00 0.00 0.00 28 1015.0
20260502033045 16 217 6.4 8.0 0.00 0.00 0.00 27 1015.0
20260502032520 16 198 4.8 8.0 0.00 0.00 0.00 27 1015.0
20260502032017 15 198 4.8 9.7 0.00 0.00 0.00 27 1014.8
20260502031551 16 198 8.0 9.7 0.00 0.00 0.00 25 1014.9
20260502031029 17 41 3.2 4.8 0.00 0.00 0.00 24 1014.6
20260502030513 17 41 1.6 3.2 0.00 0.00 0.00 24 1014.7
20260502030057 17 41 1.6 3.2 0.00 0.00 0.00 24 1014.7
20260502025523 17 41 1.6 3.2 0.00 0.00 0.00 24 1014.5
20260502025016 17 41 1.6 3.2 0.00 0.00 0.00 24 1014.4
20260502024823 17 41 1.6 3.2 0.00 0.00 0.00 24 1014.6
20260502024013 17 41 1.6 3.2 0.00 0.00 0.00 24 1014.3
20260502023517 17 41 0.0 4.8 0.00 0.00 0.00 24 1014.5
20260502023106 18 41 0.0 4.8 0.00 0.00 0.00 23 1014.5
20260502022518 18 41 3.2 4.8 0.00 0.00 0.00 23 1014.3
20260502022019 18 41 3.2 4.8 0.00 0.00 0.00 23 1014.4
20260502021554 18 41 3.2 4.8 0.00 0.00 0.00 23 1014.4
20260502021017 19 41 3.2 4.8 0.00 0.00 0.00 22 1014.5
20260502020516 20 41 3.2 6.4 0.00 0.00 0.00 21 1014.4
20260502020110 20 41 3.2 6.4 0.00 0.00 0.00 21 1014.3
20260502015521 20 41 4.8 6.4 0.00 0.00 0.00 20 1014.3
20260502015016 21 41 4.8 6.4 0.00 0.00 0.00 20 1014.4
20260502014555 22 41 3.2 6.4 0.00 0.00 0.00 18 1014.6